Location: Unspecified
(0.0000°N, 0.0000°E)
Time: 01:48:26
(UTC+00:00)

ISS - Visible Passes

Search period start: 28 June 2017 00:00
Search period end: 08 July 2017 00:00
Orbit: 401 x 408 km, 51.6° (Epoch: 28 June)

Date Brightness Start Highest point End Pass type
(mag) Time Alt. Az. Time Alt. Az. Time Alt. Az.
28 Jun -0.5 03:51:38 13° E 03:51:38 13° E 03:52:12 10° ENE visible
28 Jun -1.5 05:24:54 10° WNW 05:25:57 11° NW 05:26:59 10° NW visible
29 Jun -2.1 04:34:45 24° NNW 04:34:45 24° NNW 04:36:37 10° N visible
